Overview Statistics Trail Chart Weather Telemetry Raw packets
 

This is the latest recevied weather packets stored in our database for station/object OK2KJT-11. If no packets are shown the sender has not sent any weather packets the latest 10 day(s).

<< 6 7 8 9 10 11 12 >>
Time Temp. Humidity Pressure Rain* Wind** Luminosity Snow
1788612500 18.89° C 53% 1020.1 hPa - - - -
1788611901 18.33° C 55% 1020.3 hPa - - - -
1788611310 18.33° C 57% 1020.3 hPa - - - -
1788610702 16.67° C 59% 1020.4 hPa - - - -
1788610102 16.67° C 61% 1020.6 hPa - - - -
1788609503 16.11° C 62% 1020.5 hPa - - - -
1788608899 16.11° C 62% 1020.6 hPa - - - -
1788608298 16.11° C 61% 1020.6 hPa - - - -
1788607698 16.11° C 63% 1020.6 hPa - - - -
1788607099 16.67° C 62% 1020.6 hPa - - - -
1788606499 16.67° C 61% 1020.7 hPa - - - -
1788605899 16.67° C 61% 1020.8 hPa - - - -
1788605300 16.11° C 66% 1020.8 hPa - - - -
1788604697 16.11° C 68% 1020.7 hPa - - - -
1788604098 15° C 70% 1020.7 hPa - - - -
1788603497 15.56° C 69% 1020.7 hPa - - - -
1788602895 16.11° C 71% 1020.7 hPa - - - -
1788602295 15° C 75% 1020.6 hPa - - - -
1788601696 13.89° C 78% 1020.6 hPa - - - -
1788601104 13.33° C 81% 1020.7 hPa - - - -
1788599893 13.33° C 81% 1020.7 hPa - - - -
1788599293 12.78° C 83% 1020.8 hPa - - - -
1788598694 12.22° C 85% 1020.8 hPa - - - -
1788598094 12.22° C 88% 1020.6 hPa - - - -
1788597495 12.22° C 89% 1020.6 hPa - - - -

* Rain since midnight (hover to see other rain measurements)
** Current wind speed in m/s (hover to see current wind gust speed)